Lapse_Rate
3.8 2.9 3.3 2.8 2.6 2.7 2.7 2.7 2.7 2.4 2.4 2.2 1.9 1.8 1.7 1.5 1.6 1.6 1.4 1.2 1.1 1.1 1.1 1.1 1.3 1.5 1.7 5.1 6.4 4.6 4.3 4.1 5.2 6.0 6.0 6.1 6.4 6.9 6.5 6.7 6.9 6.5 6.6 7.0 7.1 6.6 7.0
3.2 3.4 2.8 2.9 2.9 2.8 2.8 2.7 2.6 2.4 2.3 2.1 1.9 1.8 1.7 1.6 1.7 1.7 1.7 1.6 1.5 1.4 1.5 1.4 1.8 1.8 3.2 6.7 6.7 5.6 4.6 5.6 5.9 6.4 6.2 6.4 6.9 6.9 7.0 6.8 6.6 6.9 6.8 6.9 7.1 7.0 7.1
3.3 3.2 3.1 3.1 2.9 2.8 2.8 2.6 2.4 2.4 2.0 1.9 1.8 1.8 1.7 1.7 1.9 1.8 2.0 1.8 1.5 1.3 1.4 1.7 2.4 2.8 6.7 7.5 6.4 6.3 5.8 5.8 5.7 6.4 6.6 7.0 7.2 7.3 7.2 6.5 7.1 7.0 6.5 6.5 6.7 6.9 6.5
3.3 3.1 3.4 3.1 2.9 2.7 2.8 2.6 2.4 2.2 1.8 1.7 1.7 1.9 1.7 1.7 1.8 1.8 2.0 2.0 2.3 1.9 1.8 2.4 3.0 3.1 7.1 7.5 7.3 6.9 6.4 6.4 6.4 5.6 5.8 6.6 6.9 7.3 7.3 7.3 6.9 6.5 6.5 6.5 6.5 6.6 6.8
3.2 3.2 3.1 3.0 2.7 2.8 2.8 2.6 2.4 2.1 1.7 1.7 1.9 2.1 2.0 1.9 1.7 1.9 2.3 3.3 3.4 2.9 2.8 3.5 4.1 4.2 7.1 8.2 7.4 7.5 6.8 6.2 5.7 5.9 5.6 7.4 7.3 7.2 7.0 6.5 6.5 6.5 6.5 6.5 6.5 6.7 6.5
3.5 3.0 2.8 2.9 2.8 2.8 2.8 2.7 2.2 1.9 1.9 2.1 2.5 2.6 2.5 2.2 2.0 2.7 2.6 3.6 4.0 3.8 4.3 4.0 5.2 6.5 7.7 7.7 7.9 7.5 7.5 6.6 6.7 6.4 6.8 7.1 7.2 6.5 6.5 6.5 6.5 6.5 6.5 6.5 6.5 6.5 6.5
3.1 2.9 2.9 2.8 2.8 2.8 2.7 2.6 2.3 2.2 2.4 2.7 3.1 3.1 2.6 2.7 3.5 3.1 2.5 4.1 5.7 6.1 5.5 6.9 7.0 7.1 7.3 7.3 7.6 8.3 6.7 6.4 6.5 6.8 6.5 7.0 6.5 6.5 6.5 6.5 6.5 6.5 6.5 6.5 6.5 6.5 6.5
2.8 2.7 2.7 2.7 2.8 2.5 2.5 2.4 2.5 2.6 2.9 3.2 3.5 3.5 3.1 4.1 4.3 3.6 2.7 4.3 5.4 6.0 6.8 6.0 6.4 7.2 7.2 6.8 7.2 8.1 7.9 7.3 7.1 6.5 6.7 6.5 6.5 6.5 6.5 6.5 6.5 6.5 6.5 6.5 6.5 6.5 6.5
2.4 2.5 2.6 2.7 2.6 2.4 2.3 2.5 2.7 2.9 3.2 3.5 3.7 3.8 3.5 4.1 4.9 3.6 3.9 4.4 4.1 4.9 6.5 6.8 7.4 7.4 7.8 7.3 7.2 7.5 8.0 7.3 6.7 6.5 6.5 6.5 6.5 6.6 6.5 6.5 6.5 6.5 6.5 6.5 6.5 6.5 6.5
2.5 2.5 2.4 2.4 2.2 2.1 2.2 2.3 2.7 3.1 3.5 3.7 3.9 3.7 3.3 4.3 4.9 3.2 5.1 4.0 3.5 4.7 6.5 6.5 6.8 7.5 7.7 7.0 6.8 7.9 7.6 7.5 6.7 6.5 6.5 6.5 6.6 6.5 6.5 6.5 6.5 6.5 6.5 6.5 6.5 6.5 6.5
2.4 2.3 2.4 2.2 2.0 2.1 2.1 2.3 2.6 3.2 3.6 3.7 3.9 3.8 3.4 5.2 3.6 4.6 4.4 3.2 3.9 5.7 6.5 6.5 6.8 7.9 7.1 7.1 7.2 7.1 7.2 7.3 6.5 6.5 6.5 6.5 6.5 6.5 6.5 6.5 6.5 6.5 6.5 6.5 6.5 6.5 6.5
2.2 2.2 2.1 2.0 2.0 2.2 2.2 2.1 2.7 3.3 3.6 3.7 3.9 4.5 3.9 2.8 2.1 2.4 1.7 3.7 5.5 6.5 6.5 6.5 6.7 6.6 6.6 6.9 6.9 7.2 7.4 7.4 7.0 6.5 6.5 6.5 7.1 6.5 6.5 6.5 6.5 6.5 6.5 6.5 6.5 6.5 6.5
2.0 2.0 2.2 2.2 2.0 2.1 1.9 2.3 3.0 3.4 3.4 3.7 4.8 4.9 4.0 2.3 3.6 1.4 1.9 5.3 6.5 6.5 6.5 6.5 6.5 6.5 6.5 6.5 6.5 6.5 6.5 6.5 6.5 6.5 6.5 6.5 6.5 6.5 6.7 6.5 6.5 6.5 6.5 6.5 6.5 6.5 6.5
2.1 2.2 2.2 2.0 2.0 1.9 2.1 2.6 3.1 3.3 3.3 3.9 4.6 3.5 2.5 2.7 0.3 0.5 3.3 6.4 6.5 6.5 6.5 6.5 6.5 6.5 6.5 6.5 6.5 6.5 6.5 6.5 6.5 6.5 6.5 6.5 6.5 6.5 6.5 6.5 6.5 6.5 6.5 6.5 6.5 6.5 6.5
2.3 2.1 2.1 2.0 2.0 2.1 2.2 2.7 3.1 3.3 3.4 5.0 4.2 1.4 1.9 2.4 0.7 1.1 4.3 6.5 6.5 6.5 6.5 6.5 6.5 6.5 6.5 6.5 6.5 6.5 6.5 6.5 6.5 6.5 6.5 6.5 6.5 6.5 6.5 6.5 6.5 6.5 6.5 6.5 6.5 6.5 6.5
2.3 2.3 2.2 2.2 2.0 2.0 2.4 2.9 3.2 3.4 3.8 5.2 2.7 1.9 3.7 1.5 0.4 2.0 6.2 6.5 6.5 6.6 6.7 6.5 6.5 6.5 6.5 6.5 6.5 6.5 6.5 6.5 6.5 6.6 6.7 6.5 6.5 6.5 6.5 6.6 6.6 6.5 6.5 6.5 6.5 6.5 6.5
2.3 2.2 2.1 1.9 2.0 2.4 2.5 2.9 3.2 3.4 3.6 3.8 1.7 3.6 3.5 0.6 1.9 4.5 6.5 6.5 6.5 6.9 6.9 6.5 6.5 6.5 6.5 6.5 6.5 6.5 6.5 6.5 6.5 6.5 6.7 6.5 6.5 6.5 6.5 6.5 6.5 6.5 6.5 6.5 6.5 6.5 6.5
2.0 2.1 2.0 1.9 2.2 2.4 2.6 2.9 3.3 3.3 3.4 2.0 1.5 6.2 3.6 1.0 5.8 6.9 6.5 6.5 6.9 6.7 6.9 6.7 6.6 6.5 6.5 6.5 6.5 6.5 6.5 6.5 7.0 6.8 6.5 6.5 6.5 6.5 6.5 6.5 6.5 6.5 6.5 6.5 6.5 6.5 6.5
2.1 2.2 2.0 2.1 2.2 2.3 2.6 3.1 3.5 3.8 4.2 1.4 2.9 3.2 3.0 1.9 6.5 6.5 6.7 6.5 6.7 6.6 6.6 6.5 6.5 6.5 6.5 6.5 6.5 6.5 6.5 6.9 7.2 6.6 6.5 6.5 6.5 6.5 6.5 6.5 6.5 6.5 6.5 6.5 6.5 6.5 6.5
2.2 2.1 2.1 2.2 2.2 2.5 3.0 3.3 3.7 3.5 3.0 0.7 2.4 6.5 3.7 4.0 5.5 6.6 6.5 6.5 6.5 6.6 6.8 6.9 6.6 6.7 6.5 6.5 6.5 6.5 6.5 6.6 7.1 6.9 7.2 6.9 6.5 6.5 6.5 6.5 6.5 6.5 6.5 6.5 6.5 6.5 6.5
2.2 2.1 2.2 2.3 2.6 2.9 3.2 3.3 3.6 3.5 3.4 1.6 1.9 5.9 5.7 6.5 6.6 6.8 6.7 6.5 6.5 6.5 6.8 6.9 6.5 6.5 6.5 6.5 6.5 6.5 6.5 6.5 6.7 7.0 6.8 6.5 6.5 6.5 6.5 6.5 6.5 6.5 6.5 6.5 6.5 6.5 6.5
2.3 2.3 2.4 2.6 3.1 3.4 3.1 2.9 3.5 3.9 4.2 0.1 2.7 4.8 4.8 6.6 6.4 6.6 6.6 6.5 6.5 6.5 6.5 6.5 6.5 6.5 6.5 6.5 6.5 6.5 6.5 6.5 6.5 6.6 6.5 6.5 6.5 6.5 6.5 6.5 6.5 6.5 6.5 6.5 6.5 6.5 6.5
2.4 2.4 2.5 2.8 3.3 3.6 3.2 2.7 2.3 2.9 4.3 1.3 0.7 2.0 4.5 6.3 6.8 6.5 6.5 6.5 6.5 6.8 6.6 6.8 6.7 6.5 6.5 6.6 7.0 7.2 7.2 6.9 6.3 6.5 6.5 6.5 6.5 6.5 6.5 6.5 6.5 6.5 6.5 6.5 6.5 6.5 6.5
2.5 2.5 2.6 3.0 3.1 3.3 3.4 2.6 2.1 1.2 2.7 -0.1 -0.1 2.4 4.7 6.5 6.6 6.5 6.7 6.8 6.5 6.7 6.5 6.6 6.5 6.6 6.8 6.3 5.7 6.5 6.8 7.0 6.9 6.5 6.8 6.5 6.5 6.5 6.5 6.5 6.5 6.5 6.5 6.5 6.5 6.5 6.5
2.5 2.4 2.6 2.9 3.1 3.7 3.4 3.5 2.6 3.4 3.9 -0.9 -1.4 2.8 3.7 6.5 6.8 6.7 6.8 6.7 6.7 6.6 6.8 6.9 6.6 7.2 5.9 6.4 6.5 6.5 6.5 6.5 6.5 6.5 6.5 6.5 6.5 6.5 6.5 6.5 6.5 6.5 6.5 6.5 6.5 6.5 6.5
2.5 2.5 2.5 2.8 3.3 3.6 4.3 3.9 3.6 3.9 2.7 -1.3 -1.3 -0.4 2.7 4.7 6.6 6.2 6.6 6.6 6.5 6.5 6.7 6.7 5.5 4.5 5.4 6.8 6.5 6.5 6.5 6.5 6.5 6.5 6.7 6.5 6.5 6.5 6.5 6.5 6.5 6.5 6.5 6.8 6.7 6.5 6.7
2.5 2.4 2.6 2.9 3.3 3.4 4.0 5.3 4.8 4.8 3.8 -0.0 -0.0 -0.3 3.2 4.0 6.0 5.4 6.7 6.4 6.2 6.7 6.5 6.9 6.7 6.3 5.6 6.5 6.5 6.5 6.5 6.5 6.5 6.5 6.5 6.5 6.5 6.5 6.5 6.5 6.5 6.5 6.8 7.2 6.5 6.5 6.9
2.3 2.3 2.4 3.0 3.4 3.7 4.1 5.0 5.1 5.2 5.4 1.0 1.2 0.6 3.8 3.8 5.2 5.6 5.8 5.6 5.9 6.2 6.5 6.4 6.5 6.6 6.7 6.5 6.5 6.5 6.5 6.5 6.5 6.5 6.5 6.5 6.5 6.5 6.5 6.5 6.5 6.7 6.8 6.5 6.7 7.1 7.4
2.3 2.3 2.3 2.7 3.1 3.4 3.7 4.4 5.5 6.4 5.9 4.7 3.0 0.6 1.0 3.4 5.5 3.0 4.5 5.0 4.6 5.3 4.6 5.1 6.8 7.0 6.1 6.5 6.5 6.5 6.5 6.5 6.5 6.5 6.5 6.5 6.5 6.5 6.5 6.5 6.5 6.2 6.1 6.4 7.3 7.2 7.5
Wind_Speed
6 5 6 7 7 8 9 10 11 12 12 13 13 13 13 13 13 13 13 12 12 11 11 10 11 13 4 4 5 10 15 9 4 2 3 2 2 3 3 2 4 4 2 4 4 4 3
5 5 6 7 8 9 10 11 12 12 13 14 14 14 13 12 12 12 13 13 12 11 8 7 8 9 2 8 9 16 11 7 5 3 3 0 1 2 1 2 4 1 2 4 2 1 3
5 5 6 8 9 10 11 12 12 13 14 14 14 14 13 13 13 13 13 14 14 12 6 3 3 3 11 9 6 17 10 7 2 1 4 2 2 2 3 1 1 1 4 5 5 3 6
5 5 7 8 9 10 12 12 13 14 14 15 14 13 13 14 15 13 12 12 10 4 4 2 2 2 6 1 15 22 14 7 4 2 4 7 2 2 2 3 3 1 1 4 1 4 5
5 6 7 8 10 11 12 13 13 14 14 14 13 14 15 16 16 12 7 7 12 11 7 5 3 3 4 7 15 17 10 8 12 3 2 1 4 3 3 4 4 1 7 4 2 2 2
5 7 7 9 10 11 13 13 14 13 13 12 13 14 15 16 16 9 5 5 6 6 3 1 2 2 10 9 8 16 13 8 6 8 3 4 2 6 3 7 10 6 6 4 6 2 3
6 7 8 9 10 12 13 14 13 12 11 12 13 14 17 15 11 7 6 2 2 5 10 8 8 5 2 10 3 14 8 5 5 6 6 4 4 8 10 12 13 8 5 2 3 1 8
6 7 9 10 11 12 14 14 13 12 11 12 13 14 15 9 8 10 4 4 1 3 8 4 4 7 3 4 8 18 10 8 8 5 7 3 9 3 5 5 9 15 19 18 10 9 6
7 8 9 10 11 13 14 14 12 12 12 12 13 15 15 7 5 6 4 3 3 2 5 3 4 5 12 6 5 10 11 6 6 7 9 8 9 12 12 11 10 12 16 13 13 6 9
7 8 9 10 12 14 14 14 13 12 12 13 17 16 15 4 5 2 3 5 2 1 3 9 7 4 8 5 1 4 2 4 3 6 5 7 6 8 13 15 13 16 8 9 10 7 8
7 8 9 11 13 14 14 13 13 13 12 13 16 18 10 9 3 2 2 7 3 1 4 15 5 2 8 7 9 2 1 2 6 10 4 5 11 16 18 17 12 13 6 11 14 14 11
7 8 10 12 13 13 13 14 14 13 12 14 16 14 6 5 2 1 8 1 3 3 3 6 5 15 13 6 5 5 5 3 3 5 4 13 11 12 19 21 18 15 12 10 5 10 10
8 9 9 10 12 13 14 14 13 13 12 13 13 9 7 3 3 11 1 2 3 6 3 7 8 12 11 10 8 8 10 9 4 5 11 18 5 6 6 9 15 12 11 6 9 8 9
7 8 9 11 12 14 13 13 13 13 12 11 8 4 4 7 8 3 2 3 10 2 3 4 6 9 5 12 7 11 9 8 1 2 6 5 11 4 5 5 4 8 17 6 16 6 11
8 9 10 12 12 13 14 13 12 12 12 9 7 3 3 12 8 2 4 7 3 1 4 7 8 4 4 4 3 6 5 3 3 2 7 7 9 11 15 17 7 4 11 26 10 8 8
8 9 10 11 13 15 14 13 11 10 7 7 2 3 4 21 6 4 5 7 2 2 4 3 5 3 5 9 8 8 4 2 5 2 4 4 12 5 4 3 10 14 5 14 6 6 7
8 9 10 12 14 14 14 14 12 9 3 4 3 3 3 22 4 6 5 4 2 2 5 3 3 3 4 6 4 4 5 9 2 10 11 10 5 11 13 2 5 6 6 12 6 6 3
9 9 11 13 14 14 14 13 11 5 3 8 3 3 4 5 5 3 3 1 2 4 2 1 0 1 3 5 5 3 5 6 13 12 12 3 4 6 4 17 10 6 6 11 6 7 2
8 9 12 13 14 14 14 13 10 3 3 3 3 1 3 2 4 2 2 2 1 4 4 4 2 1 2 4 4 4 6 7 10 10 10 10 7 5 5 9 16 10 12 3 9 7 4
9 11 13 14 15 15 16 13 6 5 7 4 3 3 4 5 2 3 2 4 3 4 1 3 2 1 4 3 3 5 5 5 9 8 13 10 16 18 13 8 9 14 29 26 10 6 6
9 11 13 15 16 18 17 12 6 6 7 4 3 2 1 3 5 6 2 2 4 5 3 6 1 6 3 3 5 9 9 10 6 12 5 2 2 14 19 14 21 27 29 29 27 15 10
10 12 14 15 18 19 18 14 6 5 9 4 3 3 3 2 2 3 7 5 5 4 2 4 6 11 2 2 2 5 8 11 7 12 7 3 3 2 6 6 14 28 25 27 25 23 16
11 12 14 15 18 19 20 18 11 6 8 3 1 1 4 5 3 2 3 3 3 4 4 6 6 4 4 1 8 8 5 1 4 9 7 4 4 4 3 12 8 22 24 16 21 21 15
11 13 14 15 17 19 22 23 21 16 10 3 2 3 4 3 2 2 4 2 4 4 3 5 4 2 3 7 1 2 3 6 6 14 13 5 2 3 4 6 10 6 15 9 10 20 21
11 13 14 16 17 20 22 22 25 25 19 4 2 3 3 3 1 5 9 6 5 4 1 3 3 4 9 1 2 3 4 4 6 12 18 13 2 6 4 11 3 19 23 10 4 17 21
12 12 14 15 17 20 21 21 18 16 11 7 3 1 4 4 6 4 3 4 4 6 5 3 3 6 1 3 4 4 6 5 7 14 15 17 18 6 7 7 11 13 24 22 7 14 22
12 13 13 14 17 19 19 19 19 22 20 9 3 4 4 4 2 1 5 4 3 2 2 4 8 10 6 4 5 6 5 4 6 7 7 8 6 15 11 7 5 12 17 15 18 8 19
13 13 14 13 16 18 18 16 16 16 14 8 1 12 4 3 1 2 3 4 4 3 4 3 0 4 4 5 3 3 5 5 2 5 4 8 4 5 5 6 7 12 10 10 6 8 13
13 13 13 13 15 17 17 15 14 13 13 6 4 4 4 4 1 1 1 2 1 2 1 5 3 0 1 3 2 3 6 4 5 4 9 7 6 4 4 4 2 6 3 5 6 7 13
Wind_Direction
63 54 26 13 9 3 360 359 354 353 345 341 341 340 341 340 333 327 325 323 320 318 318 328 333 334 346 51 19 330 346 343 337 339 47 85 144 153 201 192 160 219 245 192 260 284 259
61 42 26 16 7 0 359 357 355 351 344 341 340 342 341 337 328 324 324 320 311 300 298 318 333 330 23 64 320 327 334 336 1 5 11 33 121 203 164 186 211 144 264 289 285 227 270
62 38 34 16 5 1 356 357 356 347 346 340 343 343 340 333 324 327 330 321 307 288 286 317 339 14 70 51 329 348 352 312 273 310 321 306 323 188 148 245 1 104 286 301 239 221 239
59 43 27 15 7 1 355 357 354 348 347 341 343 342 337 329 324 334 339 339 -0 55 124 144 92 358 92 219 19 13 348 344 330 285 241 251 233 320 213 127 36 265 182 245 102 192 229
52 40 24 14 8 1 357 357 353 350 348 345 343 342 336 327 325 339 354 75 75 84 104 127 34 2 37 348 18 354 7 337 316 333 337 349 132 196 146 198 257 198 250 202 253 134 267
45 37 24 14 8 3 359 358 357 355 352 349 345 343 336 330 331 353 121 117 89 80 73 241 85 75 17 352 7 357 353 4 10 342 43 45 28 222 162 199 232 216 223 221 220 88 349
46 34 22 15 9 7 4 2 0 357 353 348 347 347 341 341 359 25 118 90 25 22 29 76 99 77 314 340 21 19 342 352 30 51 5 2 274 239 246 233 239 238 239 205 236 170 332
50 34 22 17 10 11 7 5 -0 356 352 349 346 344 347 354 8 24 76 74 80 121 77 32 88 45 330 331 14 16 8 36 30 3 344 294 260 180 326 323 262 246 250 251 256 268 263
51 33 24 17 14 12 8 2 357 357 352 347 342 345 353 8 19 39 56 52 341 125 92 25 53 43 18 12 34 357 25 4 21 352 331 286 290 292 284 277 271 249 242 245 251 252 282
53 36 25 18 17 12 5 359 357 358 350 345 344 351 3 25 49 300 52 340 328 139 100 2 357 17 3 349 5 340 36 21 318 310 312 291 319 314 295 253 234 252 225 221 225 221 253
53 39 27 18 14 10 4 357 360 356 347 345 350 360 22 46 148 68 325 321 136 42 75 331 330 345 353 16 301 277 34 330 277 292 264 279 296 293 291 271 265 248 195 215 222 230 239
54 39 27 19 10 9 3 2 359 349 344 348 359 14 25 27 44 72 322 116 42 52 6 336 345 333 348 3 333 315 343 348 284 291 243 268 265 265 255 264 263 280 237 235 251 219 222
50 36 25 17 11 8 8 1 355 347 347 348 13 49 57 46 302 319 4 54 46 72 334 358 333 335 339 339 342 351 338 338 340 327 328 317 276 263 273 260 258 250 257 201 210 210 226
56 37 22 16 10 7 6 1 356 347 339 337 355 74 54 50 330 153 61 68 63 335 321 303 323 323 345 5 349 337 342 349 309 232 312 321 316 217 201 186 242 225 217 230 197 185 181
50 36 22 16 10 4 4 1 356 342 335 335 352 5 33 355 28 73 71 50 124 309 325 316 327 4 336 0 329 341 321 286 273 198 339 305 277 287 271 263 200 193 213 229 311 198 172
49 33 21 16 12 4 2 356 357 349 345 22 57 18 5 345 24 64 68 99 93 3 321 346 358 9 328 324 332 343 318 288 311 295 324 278 290 326 252 288 219 217 295 190 217 195 175
51 34 19 19 13 1 359 356 355 357 38 75 50 40 281 350 47 54 74 75 76 37 32 24 340 314 290 301 301 319 286 307 332 325 314 280 243 291 304 334 55 161 216 191 196 297 193
50 32 22 20 10 0 354 353 354 1 74 54 81 48 322 352 55 38 62 66 317 349 27 37 1 281 273 296 288 299 289 303 332 329 309 254 280 302 347 37 29 69 171 181 205 244 295
48 34 27 18 10 360 355 355 359 38 136 114 77 347 335 37 88 55 63 48 53 8 347 4 340 211 318 303 308 311 306 295 324 347 333 340 327 326 10 16 17 40 26 221 265 263 247
47 36 28 17 12 6 8 3 14 120 116 87 88 48 351 43 39 88 86 21 9 336 353 11 270 16 327 299 236 300 302 315 328 342 7 351 78 68 64 50 50 54 43 44 52 40 343
50 40 30 19 16 16 18 22 94 97 106 92 39 91 219 24 33 55 71 15 8 5 13 2 25 10 280 298 342 15 357 343 356 354 16 53 73 89 104 73 62 66 50 39 45 35 36
55 45 35 24 20 22 27 32 80 111 88 79 118 134 58 78 21 37 16 18 360 335 289 339 341 335 267 268 32 313 353 19 28 328 353 3 354 177 6 320 43 50 40 50 35 25 19
64 51 41 33 28 26 30 38 44 127 87 99 139 72 100 9 17 62 3 306 293 328 232 249 305 313 284 268 296 280 268 299 295 338 332 318 342 354 6 347 359 28 14 28 30 13 0
70 60 48 40 35 35 39 43 55 67 106 112 156 113 89 62 70 65 346 314 291 305 254 304 314 243 274 335 188 154 156 242 3 21 24 334 19 17 335 334 51 8 354 359 36 7 0
77 67 56 47 41 47 51 54 59 71 83 87 121 98 100 80 306 31 5 3 316 333 286 256 311 292 321 20 54 47 6 11 358 2 13 22 29 57 56 60 100 356 0 343 20 11 353
83 73 63 55 50 53 60 62 67 76 79 82 59 41 88 111 10 282 351 353 346 349 355 297 328 317 71 55 51 51 39 357 358 350 2 30 43 59 40 68 35 347 340 329 165 18 351
89 77 68 60 56 57 59 64 68 70 77 95 60 27 86 103 339 315 35 345 326 345 260 311 340 355 21 45 47 47 45 349 17 9 342 356 5 42 43 73 50 331 347 10 47 321 330
98 86 76 64 59 58 55 58 63 69 63 72 89 28 97 98 352 8 38 19 344 24 12 322 6 15 28 59 63 37 43 36 45 31 356 19 16 20 32 61 41 349 343 32 326 316 336
104 93 86 76 66 57 52 53 59 62 55 76 70 20 30 78 155 294 67 97 325 298 257 20 99 180 96 105 71 92 61 44 31 49 3 50 34 48 46 86 323 310 317 310 337 334 348